MOLNIYA 1-49

Last updated on Oct. 27, 2020, 5:53 a.m. UTC

1 12156U 81009A   20299.80751923 -.00000515  00000-0  20656-2 0  9993
2 12156  61.9075 254.0309 7201982 254.2737  21.8830  2.05705368209185
UTC
Height (km)
Latitude
Longitude
Inclination
Orbital Period
UTC large
Height (km)
Speed (km/s)
/
Latitude / Longitude
Inclination (degrees)
Orbital Period (minutes)
Azimuth
Elevation
Range (km)
Doppler Factor
iOS Compass Heading
iOS Angle

Next 30 passes for location: Hong Kong

Rise time Rise Azimuth (degrees) Set time Set Azimuth (degrees) Duration Max altitude (degrees)

No matching passes for this satellites